Location: *
(49.4547°N, 7.9131°E)
Time: 15:32:05
(UTC+00:00)

Cosmos 614 Rocket - Pass Details

Date: 22 September 2019
Orbit: 733 x 764 km, 74.1° (Epoch: 16 October)

Event Time Altitude Azimuth Distance (km) Brightness Sun altitude
Rises 18:39:34 0° 334° (NNW) 3,238 7.9 -12.4°
Reaches altitude 10° 18:41:58 10° 333° (NNW) 2,306 7.1 -12.8°
Maximum altitude 18:47:10 70° 250° (WSW) 807 4.3 -13.6°
Drops below altitude 10° 18:52:18 10° 168° (SSE) 2,273 6.2 -14.4°
Enters shadow 18:54:09 - 166° (SSE) 2,993 6.8 -14.7°
